Weather History for KMAF - December, 2012

Change the Weather History Date:

Sunday, December 16, 2012

  Actual Average Record
Temperature  
Mean Temperature 54 °F 44 °F  
Max Temperature 65 °F 58 °F 80 °F (1946)
Min Temperature 43 °F 30 °F 12 °F (1989)
Degree Days  
Heating Degree Days 11 21  
Month to date heating degree days 199 315  
Since 1 July heating degree days 558 794  
Growing Degree Days 5 (Base 50)    
Moisture  
Dew Point 31 °F    
Average Humidity 41    
Maximum Humidity 58    
Minimum Humidity 24    
Precipitation  
Precipitation 0.00 in 0.02 in 0.24 in (1959)
Month to date precipitation 0.00 0.32  
Year to date precipitation 12.72 14.32  
Snow  
Snow 0.00 in - - ()
Month to date snowfall 0.0  
Since 1 July snowfall 0.0  
Snow Depth 0.00 in    
Sea Level Pressure  
Sea Level Pressure 29.82 in    
Wind  
Wind Speed 18 mph (WSW)    
Max Wind Speed 30 mph    
Max Gust Speed 37 mph    
Visibility 10 miles    
Events      
T = Trace of Precipitation, MM = Missing Value Source: NWS Daily Summary

Daily Weather History Graph

Daily Weather History Graph

Search for Another Location

Airport or City:

Trip Planner

Search our weather history database for the weather conditions in past years. The results will help you decide how hot, cold, wet, or windy it might be!

Date:

Astronomy

Dec. 16, 2012 Rise Set
Actual Time 7:42 AM CST 5:46 PM CST
Civil Twilight 7:15 AM CST 6:13 PM CST
Nautical Twilight 6:45 AM CST 6:44 PM CST
Astronomical Twilight 6:15 AM CST 7:14 PM CST
Moon 10:27 AM CST (12/16) 9:51 PM CST (12/16)
Length of Visible Light 10h 58m
Length of Day
10h 04m
Waxing Crescent, 16% of the Moon is Illuminated
Dec 16
Waxing Crescent
Dec 19
First Quarter
Dec 28
Full
Jan 4
Last Quarter
Jan 11
New

Hourly Weather History & Observations

Time (CST) Temp. Windchill Dew Point Humidity Pressure Visibility Wind Dir Wind Speed Gust Speed Precip Events Conditions
12:53 AM 51.1 °F - 30.9 °F 46% 29.82 in 10.0 mi SW 6.9 mph - N/A   Clear
1:53 AM 46.0 °F 43.1 °F 30.9 °F 56% 29.83 in 10.0 mi WSW 5.8 mph - N/A   Clear
2:53 AM 46.9 °F - 32.0 °F 56% 29.83 in 10.0 mi SW 8.1 mph - N/A   Clear
3:53 AM 46.0 °F 41.0 °F 32.0 °F 58% 29.83 in 10.0 mi SW 10.4 mph - N/A   Clear
4:53 AM 46.9 °F - 32.0 °F 56% 29.82 in 10.0 mi WSW 12.7 mph - N/A   Clear
5:53 AM 46.9 °F - 32.0 °F 56% 29.83 in 10.0 mi WSW 10.4 mph - N/A   Clear
6:53 AM 46.0 °F 39.6 °F 30.9 °F 56% 29.84 in 10.0 mi WSW 15.0 mph - N/A   Clear
7:53 AM 46.9 °F - 30.9 °F 54% 29.84 in 10.0 mi WSW 16.1 mph - N/A   Clear
8:53 AM 52.0 °F - 32.0 °F 47% 29.84 in 10.0 mi WSW 23.0 mph 26.5 mph N/A   Clear
9:53 AM 55.0 °F - 32.0 °F 42% 29.85 in 10.0 mi West 27.6 mph 33.4 mph N/A   Clear
10:53 AM 57.9 °F - 32.0 °F 37% 29.84 in 10.0 mi West 25.3 mph 31.1 mph N/A   Clear
11:53 AM 61.0 °F - 32.0 °F 34% 29.82 in 10.0 mi West 20.7 mph 29.9 mph N/A   Clear
12:53 PM 63.0 °F - 30.9 °F 30% 29.79 in 10.0 mi West 24.2 mph 29.9 mph N/A   Clear
1:53 PM 64.9 °F - 30.0 °F 27% 29.75 in 10.0 mi WSW 18.4 mph 27.6 mph N/A   Clear
2:53 PM 64.0 °F - 27.0 °F 25% 29.73 in 10.0 mi WSW 26.5 mph 34.5 mph N/A   Clear
3:53 PM 63.0 °F - 27.0 °F 26% 29.73 in 10.0 mi West 25.3 mph 31.1 mph N/A   Clear
4:53 PM 62.1 °F - 28.0 °F 28% 29.73 in 10.0 mi West 26.5 mph 33.4 mph N/A   Clear
5:53 PM 59.0 °F - 28.0 °F 31% 29.76 in 10.0 mi West 19.6 mph 34.5 mph N/A   Clear
6:53 PM 57.0 °F - 30.0 °F 36% 29.79 in 10.0 mi West 23.0 mph 34.5 mph N/A   Clear
7:53 PM 55.0 °F - 30.0 °F 38% 29.82 in 10.0 mi West 19.6 mph - N/A   Clear
8:53 PM 52.0 °F - 30.0 °F 43% 29.86 in 10.0 mi West 16.1 mph - N/A   Clear
9:53 PM 50.0 °F - 30.9 °F 48% 29.87 in 10.0 mi West 12.7 mph - N/A   Clear
10:53 PM 48.0 °F - 30.9 °F 52% 29.90 in 10.0 mi West 11.5 mph - N/A   Clear
11:53 PM 48.0 °F - 30.0 °F 50% 29.91 in 10.0 mi West 15.0 mph - N/A   Clear